Bridgeport, CT

9:29 AM EDT on April 30, 2017 (GMT -0400)
Sikorsky Memorial

Weather History for KBDR - February, 2013

Change the Weather History Date:

Wednesday, February 27, 2013

  Actual Average Record
Temperature  
Mean Temperature 40 °F 35 °F  
Max Temperature 44 °F 42 °F 67 °F (1997)
Min Temperature 36 °F 27 °F 4 °F (1950)
Degree Days  
Heating Degree Days 25 30  
Month to date heating degree days 912 882  
Since 1 July heating degree days 3598 3858  
Cooling Degree Days 0 0  
Month to date cooling degree days 0 0  
Year to date cooling degree days 0 0  
Moisture  
Dew Point 39 °F    
Average Humidity 95    
Maximum Humidity 100    
Minimum Humidity 89    
Precipitation  
Precipitation 1.11 in 0.12 in 1.60 in (1971)
Month to date precipitation 4.99 2.67  
Year to date precipitation 6.99 5.77  
Snow  
Snow 0.00 in 0.20 in 2.10 in (1991)
Month to date snowfall 30.4 7.8  
Since 1 July snowfall 51.3 21.3  
Snow Depth 4.00 in    
Sea Level Pressure  
Sea Level Pressure 29.65 in    
Wind  
Wind Speed 18 mph (ENE)    
Max Wind Speed 36 mph    
Max Gust Speed 53 mph    
Visibility 3 miles    
Events Fog , Rain    
T = Trace of Precipitation, MM = Missing Value Source: NWS Daily Summary

Daily Weather History Graph

Daily Weather History Graph

Search for Another Location

Airport or City:

Trip Planner

Search our weather history database for the weather conditions in past years. The results will help you decide how hot, cold, wet, or windy it might be!

Date:

Astronomy

Feb. 27, 2013 Rise Set
Actual Time 6:29 AM EST 5:41 PM EST
Civil Twilight 6:01 AM EST 6:09 PM EST
Nautical Twilight 5:29 AM EST 6:41 PM EST
Astronomical Twilight 4:58 AM EST 7:12 PM EST
Moon 8:01 PM EST (2/27) 7:01 AM EST (2/27)
Length of Visible Light 12h 07m
Length of Day
11h 11m
Waning Gibbous, 96% of the Moon is Illuminated
Feb 27
Waning Gibbous
Mar 4
Last Quarter
Mar 11
New
Mar 19
First Quarter
Mar 27
Full

Hourly Weather History & Observations

Time (EST) Temp. Windchill Dew Point Humidity Pressure Visibility Wind Dir Wind Speed Gust Speed Precip Events Conditions
12:52 AM 36.0 °F 25.3 °F 34.0 °F 93% 29.95 in 4.0 mi ENE 19.6 mph 27.6 mph 0.07 in Rain Rain
1:52 AM 37.0 °F 26.7 °F 35.1 °F 93% 29.93 in 4.0 mi NE 19.6 mph 25.3 mph 0.21 in Rain Rain
2:52 AM 37.9 °F 28.2 °F 36.0 °F 93% 29.87 in 4.0 mi ENE 18.4 mph 26.5 mph 0.15 in Rain Rain
3:52 AM 39.0 °F 29.3 °F 37.0 °F 93% 29.81 in 5.0 mi ENE 19.6 mph 33.4 mph 0.07 in Rain Light Rain
4:52 AM 39.9 °F 29.7 °F 37.9 °F 93% 29.79 in 3.0 mi ENE 23.0 mph 28.8 mph 0.09 in Rain Rain
4:59 AM 39.2 °F 28.5 °F 39.2 °F 100% 29.78 in 2.5 mi ENE 24.2 mph 31.1 mph 0.03 in Rain Rain
5:18 AM 41.0 °F 31.4 °F 39.2 °F 93% 29.77 in 4.0 mi NE 21.9 mph 32.2 mph 0.09 in Rain Light Rain
5:52 AM 41.0 °F 30.7 °F 39.0 °F 93% 29.75 in 3.0 mi ENE 25.3 mph 34.5 mph 0.13 in Rain Rain
6:00 AM 41.0 °F 30.7 °F 39.2 °F 93% 29.75 in 4.0 mi ENE 25.3 mph 35.7 mph N/A Rain Light Rain
6:36 AM 42.8 °F 33.3 °F 39.2 °F 87% 29.73 in 4.0 mi ENE 24.2 mph 33.4 mph 0.03 in Rain Light Rain
6:52 AM 42.1 °F 31.7 °F 39.9 °F 92% 29.73 in 6.0 mi ENE 27.6 mph 35.7 mph 0.04 in Rain Light Rain
7:13 AM 42.8 °F 31.9 °F 41.0 °F 93% 29.72 in 2.0 mi ENE 32.2 mph 41.4 mph 0.02 in Rain Light Rain
7:21 AM 42.8 °F 32.3 °F 41.0 °F 93% 29.72 in 1.5 mi ENE 29.9 mph 40.3 mph 0.02 in Rain Light Rain
7:41 AM 42.8 °F 32.5 °F 42.8 °F 100% 29.72 in 2.0 mi ENE 28.8 mph 52.9 mph 0.03 in Rain Light Rain
7:48 AM 42.8 °F 32.5 °F 41.0 °F 93% 29.72 in 1.5 mi ENE 28.8 mph 39.1 mph 0.04 in Rain Rain
7:52 AM 43.0 °F 32.2 °F 41.0 °F 93% 29.72 in 1.5 mi ENE 32.2 mph 46.0 mph 0.04 in Rain Light Rain
8:15 AM 42.8 °F 31.9 °F 41.0 °F 93% 29.70 in 2.5 mi ENE 32.2 mph 44.9 mph 0.02 in Rain Light Rain
8:27 AM 42.8 °F 32.1 °F 41.0 °F 93% 29.69 in 3.0 mi ENE 31.1 mph 43.7 mph 0.03 in Rain Light Rain
8:34 AM 42.8 °F 32.3 °F 41.0 °F 93% 29.69 in 2.0 mi ENE 29.9 mph 41.4 mph 0.03 in Rain Rain
8:52 AM 43.0 °F 32.0 °F 41.0 °F 93% 29.68 in 2.5 mi ENE 33.4 mph 44.9 mph 0.04 in Rain Light Rain
9:02 AM 42.8 °F 32.1 °F 41.0 °F 93% 29.67 in 3.0 mi ENE 31.1 mph 43.7 mph 0.01 in Rain Light Rain
9:06 AM 42.8 °F 32.3 °F 41.0 °F 93% 29.67 in 2.5 mi ENE 29.9 mph 40.3 mph 0.01 in Rain Light Rain
9:18 AM 42.8 °F 32.1 °F 41.0 °F 93% 29.66 in 1.8 mi ENE 31.1 mph 42.6 mph 0.02 in Rain Light Rain
9:52 AM 42.1 °F 31.3 °F 41.0 °F 96% 29.65 in 1.0 mi ENE 29.9 mph 39.1 mph 0.05 in Rain Light Rain
10:52 AM 41.0 °F 30.9 °F 39.9 °F 96% 29.62 in 0.8 mi ENE 24.2 mph 32.2 mph 0.10 in Rain Heavy Rain
11:03 AM 41.0 °F 31.1 °F 39.2 °F 93% 29.62 in 1.0 mi ENE 23.0 mph 33.4 mph 0.06 in Rain Heavy Rain
11:21 AM 41.0 °F 31.6 °F 39.2 °F 93% 29.61 in 2.0 mi ENE 20.7 mph 29.9 mph 0.09 in Rain Light Rain
11:35 AM 41.0 °F 30.5 °F 39.2 °F 93% 29.60 in 1.5 mi East 26.5 mph 34.5 mph 0.11 in Rain Light Rain
11:49 AM 41.0 °F 30.7 °F 39.2 °F 93% 29.60 in 2.0 mi East 25.3 mph 34.5 mph 0.11 in Rain Light Rain
11:52 AM 41.0 °F 30.5 °F 39.9 °F 96% 29.60 in 2.0 mi East 26.5 mph 34.5 mph 0.11 in Rain Light Rain
12:01 PM 41.0 °F 29.8 °F 39.2 °F 93% 29.59 in 1.8 mi East 29.9 mph 38.0 mph 0.01 in Rain Light Rain
12:12 PM 41.0 °F 30.5 °F 39.2 °F 93% 29.59 in 2.0 mi East 26.5 mph 34.5 mph 0.02 in Rain Light Rain
12:52 PM 41.0 °F 30.7 °F 39.9 °F 96% 29.56 in 1.8 mi East 25.3 mph 34.5 mph 0.03 in Rain Light Rain
1:00 PM 41.0 °F 30.7 °F 39.2 °F 93% 29.56 in 2.5 mi East 25.3 mph 32.2 mph 0.00 in Rain Light Rain
1:08 PM 41.0 °F 29.8 °F 39.2 °F 93% 29.55 in 3.0 mi East 29.9 mph 35.7 mph 0.00 in   Overcast
1:52 PM 41.0 °F 30.9 °F 39.9 °F 96% 29.53 in 6.0 mi East 24.2 mph - 0.00 in   Overcast
2:52 PM 41.0 °F 31.1 °F 39.9 °F 96% 29.54 in 5.0 mi East 23.0 mph 31.1 mph N/A   Overcast
3:08 PM 41.0 °F 32.5 °F 39.2 °F 93% 29.53 in 2.0 mi East 17.3 mph 29.9 mph 0.00 in Rain Light Rain
3:18 PM 41.0 °F 31.9 °F 39.2 °F 93% 29.53 in 1.8 mi East 19.6 mph 27.6 mph 0.00 in Rain Light Rain
3:27 PM 41.0 °F 31.6 °F 39.2 °F 93% 29.53 in 2.0 mi East 20.7 mph 27.6 mph 0.00 in   Overcast
3:52 PM 41.0 °F 32.5 °F 39.9 °F 96% 29.54 in 3.0 mi East 17.3 mph - 0.00 in   Overcast
4:35 PM 39.2 °F 31.6 °F 39.2 °F 100% 29.54 in 2.0 mi East 12.7 mph - N/A   Overcast
4:43 PM 39.2 °F 31.6 °F 39.2 °F 100% 29.55 in 1.5 mi ENE 12.7 mph - N/A   Overcast
4:52 PM 39.9 °F 33.4 °F 39.9 °F 100% 29.55 in 1.0 mi ENE 10.4 mph - N/A   Overcast
5:10 PM 39.2 °F 32.0 °F 39.2 °F 100% 29.55 in 0.8 mi ENE 11.5 mph - N/A   Overcast
5:20 PM 39.2 °F 32.5 °F 39.2 °F 100% 29.55 in 0.5 mi ENE 10.4 mph - 0.00 in Fog , Rain Light Rain
5:34 PM 39.2 °F 33.0 °F 39.2 °F 100% 29.55 in 1.0 mi East 9.2 mph - 0.00 in Rain Light Rain
5:52 PM 39.9 °F 35.1 °F 39.9 °F 100% 29.56 in 1.5 mi East 6.9 mph - 0.00 in   Overcast
6:02 PM 39.2 °F 34.2 °F 39.2 °F 100% 29.57 in 2.5 mi East 6.9 mph - N/A   Overcast
6:15 PM 39.2 °F - 39.2 °F 100% 29.57 in 1.5 mi Calm Calm - N/A   Overcast
6:26 PM 39.2 °F 35.0 °F 39.2 °F 100% 29.58 in 2.0 mi North 5.8 mph - N/A   Overcast
6:35 PM 39.2 °F 35.9 °F 39.2 °F 100% 29.59 in 1.2 mi NW 4.6 mph - N/A   Overcast
6:52 PM 39.9 °F 36.7 °F 39.9 °F 100% 29.59 in 1.0 mi West 4.6 mph - N/A   Overcast
7:16 PM 41.0 °F 39.0 °F 41.0 °F 100% 29.60 in 1.0 mi West 3.5 mph - N/A   Overcast
7:32 PM 42.8 °F 41.1 °F 41.0 °F 93% 29.60 in 2.5 mi WSW 3.5 mph - N/A   Overcast
7:44 PM 42.8 °F 39.3 °F 41.0 °F 93% 29.60 in 3.0 mi West 5.8 mph - N/A   Overcast
7:52 PM 42.1 °F 39.2 °F 41.0 °F 96% 29.60 in 4.0 mi West 4.6 mph - N/A   Overcast
8:05 PM 41.0 °F 38.0 °F 41.0 °F 100% 29.60 in 4.0 mi West 4.6 mph - N/A   Overcast
8:38 PM 41.0 °F 37.1 °F 39.2 °F 93% 29.61 in 6.0 mi SW 5.8 mph - N/A   Mostly Cloudy
8:52 PM 39.9 °F 36.7 °F 39.0 °F 97% 29.62 in 4.0 mi WSW 4.6 mph - N/A   Overcast
9:07 PM 39.2 °F 35.0 °F 37.4 °F 93% 29.62 in 5.0 mi WSW 5.8 mph - N/A   Overcast
9:37 PM 39.2 °F 35.0 °F 37.4 °F 93% 29.64 in 5.0 mi WSW 5.8 mph - N/A   Scattered Clouds
9:52 PM 39.9 °F 35.1 °F 39.0 °F 97% 29.64 in 10.0 mi West 6.9 mph - N/A   Clear
10:52 PM 39.0 °F 35.7 °F 37.0 °F 93% 29.64 in 10.0 mi West 4.6 mph - N/A   Clear
11:52 PM 37.9 °F 35.5 °F 35.1 °F 89% 29.62 in 10.0 mi NW 3.5 mph - N/A   Partly Cloudy